Weather History for Hanford, WA

Change the Weather History Date:

Monday, August 27, 2012

  Actual Average Record
Temperature  
Mean Temperature 76 °F -  
Max Temperature 88 °F 86 °F 98 °F (1999)
Min Temperature 65 °F 57 °F 51 °F (2007)
Cooling Degree Days 11    
Growing Degree Days 26 (Base 50)    
Moisture  
Dew Point 43 °F    
Average Humidity 32    
Maximum Humidity 47    
Minimum Humidity 20    
Precipitation  
Precipitation 0.00 in - - ()
Sea Level Pressure  
Sea Level Pressure 29.91 in    
Wind  
Wind Speed 12 mph (WSW)    
Max Wind Speed 17 mph    
Max Gust Speed -    
Visibility 15 miles    
Events      
Averages and records for this station are not official NWS values.
T = Trace of Precipitation, MM = Missing Value Source: NWS Daily Summary

Daily Weather History Graph

Daily Weather History Graph

Search for Another Location

Airport:

Trip Planner

Search our weather history database for the weather conditions in past years. The results will help you decide how hot, cold, wet, or windy it might be!

Date:

Astronomy

Aug. 27, 2012 Rise Set
Actual Time 6:12 AM PDT 7:45 PM PDT
Civil Twilight 5:41 AM PDT 8:17 PM PDT
Nautical Twilight 5:02 AM PDT 8:55 PM PDT
Astronomical Twilight 4:20 AM PDT 9:36 PM PDT
Moon 5:17 PM PDT (8/27) 1:51 AM PDT (8/27)
Length of Visible Light 14h 36m
Length of Day
13h 33m
Waxing Gibbous, 83% of the Moon is Illuminated
Aug 27
Waxing Gibbous
Aug 31
Full
Sep 8
Last Quarter
Sep 15
New
Sep 22
First Quarter

Hourly Weather History & Observations

Time (PDT) Temp. Dew Point Humidity Pressure Visibility Wind Dir Wind Speed Gust Speed Precip Events Conditions
12:50 AM 74.5 °F 35.4 °F 24% 29.81 in 15.0 mi West 17.3 mph - N/A   Mostly Cloudy
1:50 AM 71.8 °F 37.8 °F 29% 29.81 in 15.0 mi West 12.7 mph - N/A   Mostly Cloudy
3:50 AM 67.5 °F 42.4 °F 40% 29.87 in 15.0 mi West 11.5 mph - N/A   Clear
4:50 AM 66.0 °F 43.2 °F 43% 29.88 in 15.0 mi West 9.2 mph - N/A   Clear
5:50 AM 65.8 °F 44.8 °F 47% 29.90 in 15.0 mi West 9.2 mph - N/A   Partly Cloudy
6:50 AM 66.7 °F 44.8 °F 45% 29.92 in 15.0 mi WSW 9.2 mph - N/A   Partly Cloudy
7:50 AM 69.3 °F 45.3 °F 42% 29.95 in 15.0 mi SW 10.4 mph - N/A   Clear
8:50 AM 75.2 °F 45.1 °F 34% 29.96 in 15.0 mi West 10.4 mph - N/A   Partly Cloudy
9:50 AM 76.8 °F 44.1 °F 31% 29.98 in 15.0 mi West 8.1 mph - N/A   Partly Cloudy
10:50 AM 77.9 °F 44.2 °F 30% 29.96 in 15.0 mi West 6.9 mph - N/A   Partly Cloudy
11:50 AM 81.5 °F 44.1 °F 27% 29.97 in 15.0 mi West 8.1 mph - N/A   Partly Cloudy
12:50 PM 83.7 °F 45.0 °F 26% 29.95 in 15.0 mi South 9.2 mph - N/A   Clear
1:50 PM 85.1 °F 45.1 °F 25% 29.95 in 15.0 mi SW 9.2 mph - N/A   Clear
2:50 PM 86.2 °F 46.0 °F 25% 29.93 in 15.0 mi West 8.1 mph - N/A   Partly Cloudy
3:50 PM 86.7 °F 43.5 °F 22% 29.92 in 15.0 mi SW 11.5 mph - N/A   Clear
4:50 PM 87.6 °F 42.4 °F 21% 29.88 in 15.0 mi West 11.5 mph - N/A   Clear
5:50 PM 86.5 °F 41.4 °F 20% 29.87 in 15.0 mi West 12.7 mph - N/A   Clear
6:50 PM 83.8 °F 40.3 °F 21% 29.87 in 15.0 mi WSW 12.7 mph - N/A   Clear
10:50 PM 72.0 °F 46.9 °F 41% 29.93 in 15.0 mi WNW 13.8 mph - N/A   Clear
11:50 PM 68.5 °F 44.2 °F 42% 29.93 in 15.0 mi West 8.1 mph - N/A   Clear